Terminal Aerodrome Forecast
Issued by NWS Milwaukee/Sullivan, WI

Home | Current Version | Previous Version | Text Only | Print | Product List | Glossary On
Versions: 1 2 3 4 5 6 7 8 9 10 11 12 13 14 15 16 17 18 19 20 21 22 23 24 25 26 27 28 29 30 31 32 33 34 35 36 37 38 39 40 41 42 43 44 45 46 47 48 49 50
000
FTUS43 KMKX 031739
TAFMSN
TAF
KMSN 031739Z 0318/0418 21007KT 1SM -FZDZ BR OVC005
     FM032000 26011KT 3SM BR BKN008 OVC015
     FM032200 29010G19KT P6SM BKN015
     FM040000 30010KT P6SM BKN020
     FM041500 30012G19KT P6SM SCT025=

USA.gov is the U.S. government's official web portal to all federal, state and local government web resources and services.